Flag for Switzerland Weather past 2 weeks in Buchs, St. Gallen, Switzerland

Now
74 °F

Passing clouds.


Feels Like: 77 °F
Forecast: 58 / 81 °F
Wind: 9 mph from North

Location: Vaduz

Current Time: Jul 31, 2015 at 6:25:45 PM

Latest Report: Jul 31, 2015 at 5:00 PM


Visibility: 9 mi

Pressure: 29.86 "Hg

Humidity: 44%

Dew point: 51 °F

Location of BuchsLocation

Historic Weather in Buchs — Graph

°F

Buchs temperature yesterday

Maximum temperature yesterday: 64 °F (at 6:00 PM)
Minimum temperature yesterday: 55 °F (at 4:00 AM)
Average temperature yesterday: 59 °F

Past Weeks' High & Low Weather Summary

 TemperatureHumidityPressure
High91 °F (Jul 22, 4:00 PM)96% (Jul 23, 5:00 AM)30.18 "Hg (Jul 23, 5:00 AM)
Low48 °F (Jul 31, 6:00 AM)34% (Jul 16, 6:00 PM)29.67 "Hg (Jul 24, 7:00 PM)
Average70 °F69%29.93 "Hg
* Reported Jul 16 5:00 PM — Jul 31 5:00 PM, Buchs, Weather by CustomWeather, © 2015

Note: Actual official high and low records may vary slightly from our data, if they occured in-between our weather recording intervals... More about our weather records

Advertising

Buchs weather history for previous 24 hours

 ConditionsComfort  
Time TempWeatherWind HumidityBarometerVisibility
5:00 PM
Fri, Jul 31
74 °FPassing clouds.9 mph44%29.86 "Hg9 mi
4:00 PM75 °FMild.7 mph47%29.87 "HgN/A
3:00 PM73 °FMild.9 mph48%29.90 "HgN/A
2:00 PM71 °FPassing clouds.7 mph52%29.91 "Hg9 mi
1:00 PM69 °FMild.8 mph48%29.95 "HgN/A
12:00 PM67 °FMild.6 mph61%29.97 "HgN/A
11:00 AM64 °FMild.3 mph64%29.99 "HgN/A
10:00 AM60 °FCool.2 mph68%30.03 "HgN/A
9:00 AM56 °FCool.1 mph80%30.07 "HgN/A
8:00 AM50 °FPassing clouds.No wind96%30.09 "Hg9 mi
7:00 AM49 °FCool.1 mph95%30.09 "HgN/A
6:00 AM48 °FCool.2 mph95%30.09 "HgN/A
4:00 AM50 °FCool.1 mph95%30.09 "HgN/A
3:00 AM51 °FCool.1 mph95%30.09 "HgN/A
2:00 AM52 °FOvercast.No wind94%30.08 "Hg12 mi
1:00 AM54 °FCool.No wind93%30.07 "HgN/A
12:00 AM56 °FCool.No wind92%30.06 "HgN/A
10:00 PM
Thu, Jul 30
57 °FCool.No wind92%30.04 "HgN/A
9:00 PM60 °FCool.No wind85%30.02 "HgN/A
8:00 PM63 °FOvercast.No wind75%29.99 "Hg12 mi
7:00 PM64 °FMild.1 mph68%29.99 "HgN/A
6:00 PM64 °FMild.1 mph62%29.99 "HgN/A
Weather by CustomWeather, © 2015

See weather overviewHow to use our weather pages